SCISAT-1

operational
NORAD ID: 27858 Int'l Des: 2003-036 Owner: CSA Country: CA
LEOCIRCULAR

About SCISAT-1

Description loading...

Live Position

Loading 3D Globe...

Upcoming Passes

Altitude History

Altitude vs Time

uPlot chart will show altitude changes over time

Two-Line Element Set

1 27858U 03036A 26061.59169512 .00001165 00000-0 15391-3 0 9990
2 27858 73.9312 23.1119 0005912 117.8675 242.3101 14.81294228215660
Epoch: Mar 2, 2026 • Age: 26 hours

Current Status

Altitude 631.2 km
Velocity 7.55 km/s
Sub-Earth Point 50.78°N, 144.97°W
Launch Date Aug 13, 2003
Age 22.5 years
Type other

Technical Details

Classification Payload
Mass 150.00 kg
Dry Mass 150.00 kg
Total Mass 150.00 kg
Length 0.60 m
Diameter 1.10 m
Span 1.10 m
Shape Cyl
Manufacturer BRIS
Bus Type MAC-100
Phase Status In Orbit
Owner/State CSA/CA

Large Constellations

Loading constellations...